Weather History for Cushing, OK

Change the Weather History Date:

Wednesday, January 2, 2013

  Actual Average Record
Temperature  
Mean Temperature 30 °F -  
Max Temperature 42 °F 45 °F 68 °F (1949)
Min Temperature 17 °F 23 °F 2 °F (1979)
Degree Days  
Heating Degree Days 36    
Moisture  
Dew Point 26 °F    
Average Humidity 90    
Maximum Humidity 100    
Minimum Humidity 61    
Precipitation  
Precipitation 0.00 in - - ()
Sea Level Pressure  
Sea Level Pressure 30.26 in    
Wind  
Wind Speed 3 mph (West)    
Max Wind Speed 12 mph    
Max Gust Speed -    
Visibility 9 miles    
Events      
Averages and records for this station are not official NWS values.
T = Trace of Precipitation, MM = Missing Value Source: NWS Daily Summary

Daily Weather History Graph

Daily Weather History Graph

Search for Another Location

Airport:

Trip Planner

Search our weather history database for the weather conditions in past years. The results will help you decide how hot, cold, wet, or windy it might be!

Date:

Astronomy

Jan. 02, 2013 Rise Set
Actual Time 7:37 AM CST 5:25 PM CST
Civil Twilight 7:09 AM CST 5:53 PM CST
Nautical Twilight 6:37 AM CST 6:25 PM CST
Astronomical Twilight 6:06 AM CST 6:56 PM CST
Moon 10:47 PM CST (1/2) 10:30 AM CST (1/2)
Length of Visible Light 10h 44m
Length of Day
9h 47m
Waning Gibbous, 75% of the Moon is Illuminated
Jan 2
Waning Gibbous
Jan 4
Last Quarter
Jan 11
New
Jan 18
First Quarter
Jan 26
Full

Hourly Weather History & Observations

Time (CST) Temp. Windchill Dew Point Humidity Pressure Visibility Wind Dir Wind Speed Gust Speed Precip Events Conditions
12:15 AM 21.2 °F - 21.2 °F 100% 30.30 in 10.0 mi Calm Calm - N/A   Clear
12:35 AM 21.2 °F - 21.2 °F 100% 30.30 in 10.0 mi Calm Calm - N/A   Clear
12:55 AM 21.2 °F - 21.2 °F 100% 30.30 in 10.0 mi Calm Calm - N/A   Clear
1:15 AM 19.4 °F - 19.4 °F 100% 30.30 in 7.0 mi Calm Calm - N/A   Clear
1:35 AM 19.4 °F - 19.4 °F 100% 30.30 in 7.0 mi Calm Calm - N/A   Clear
1:55 AM 19.4 °F - 19.4 °F 100% 30.30 in 7.0 mi Calm Calm - N/A   Clear
2:15 AM 19.4 °F - 19.4 °F 100% 30.30 in 7.0 mi Calm Calm - N/A   Clear
2:35 AM 19.4 °F - 19.4 °F 100% 30.30 in 7.0 mi Calm Calm - N/A   Clear
2:55 AM 19.4 °F 14.3 °F 19.4 °F 100% 30.30 in 7.0 mi West 3.5 mph - N/A   Clear
3:15 AM 19.4 °F - 19.4 °F 100% 30.29 in 7.0 mi Calm Calm - N/A   Clear
3:35 AM 19.4 °F - 19.4 °F 100% 30.28 in 7.0 mi Calm Calm - N/A   Clear
3:55 AM 19.4 °F - 19.4 °F 100% 30.28 in 7.0 mi Calm Calm - N/A   Clear
4:15 AM 19.4 °F - 19.4 °F 100% 30.28 in 7.0 mi Calm Calm - N/A   Clear
4:35 AM 19.4 °F - 19.4 °F 100% 30.28 in 7.0 mi Calm Calm - N/A   Clear
4:55 AM 19.4 °F - 19.4 °F 100% 30.28 in 7.0 mi Calm Calm - N/A   Clear
5:15 AM 19.4 °F - 19.4 °F 100% 30.27 in 7.0 mi Calm Calm - N/A   Clear
5:35 AM 17.6 °F - 17.6 °F 100% 30.27 in 7.0 mi Calm Calm - N/A   Clear
5:55 AM 19.4 °F - 19.4 °F 100% 30.27 in 7.0 mi Calm Calm - N/A   Mostly Cloudy
6:15 AM 21.2 °F - 21.2 °F 100% 30.26 in 7.0 mi Calm Calm - N/A   Overcast
6:35 AM 21.2 °F - 21.2 °F 100% 30.26 in 5.0 mi Calm Calm - N/A   Overcast
6:55 AM 21.2 °F - 21.2 °F 100% 30.26 in 7.0 mi Calm Calm - N/A   Overcast
7:15 AM 21.2 °F - 21.2 °F 100% 30.26 in 7.0 mi Calm Calm - N/A   Overcast
7:35 AM 21.2 °F - 21.2 °F 100% 30.27 in 7.0 mi Calm Calm - N/A   Overcast
7:55 AM 21.2 °F - 21.2 °F 100% 30.28 in 7.0 mi Calm Calm - N/A   Overcast
8:15 AM 23.0 °F - 23.0 °F 100% 30.28 in 7.0 mi Calm Calm - N/A   Overcast
8:35 AM 24.8 °F - 24.8 °F 100% 30.28 in 7.0 mi Calm Calm - N/A   Overcast
9:15 AM 26.6 °F 21.2 °F 26.6 °F 100% 30.29 in 10.0 mi WSW 4.6 mph - N/A   Overcast
9:35 AM 28.4 °F 24.6 °F 28.4 °F 100% 30.30 in 10.0 mi SW 3.5 mph - N/A   Overcast
9:55 AM 28.4 °F 21.2 °F 28.4 °F 100% 30.29 in 10.0 mi WSW 6.9 mph - N/A   Overcast
10:15 AM 28.4 °F 22.2 °F 28.4 °F 100% 30.30 in 10.0 mi WSW 5.8 mph - N/A   Overcast
10:35 AM 30.2 °F 23.4 °F 28.4 °F 93% 30.30 in 10.0 mi SW 6.9 mph - N/A   Overcast
10:55 AM 30.2 °F 23.4 °F 30.2 °F 100% 30.30 in 10.0 mi WSW 6.9 mph - N/A   Mostly Cloudy
11:15 AM 32.0 °F 26.4 °F 30.2 °F 93% 30.28 in 10.0 mi SW 5.8 mph - N/A   Scattered Clouds
11:35 AM 32.0 °F 24.8 °F 30.2 °F 93% 30.27 in 10.0 mi SW 8.1 mph - N/A   Mostly Cloudy
11:55 AM 32.0 °F 25.6 °F 30.2 °F 93% 30.26 in 10.0 mi WSW 6.9 mph - N/A   Scattered Clouds
12:15 PM 35.6 °F 29.9 °F 32.0 °F 87% 30.24 in 10.0 mi SSW 6.9 mph - N/A   Mostly Cloudy
12:35 PM 35.6 °F 30.7 °F 32.0 °F 87% 30.23 in 10.0 mi SW 5.8 mph - N/A   Scattered Clouds
12:55 PM 37.4 °F 30.8 °F 32.0 °F 81% 30.22 in 10.0 mi WSW 9.2 mph - N/A   Clear
1:15 PM 37.4 °F 30.8 °F 32.0 °F 81% 30.21 in 10.0 mi WSW 9.2 mph - N/A   Clear
1:35 PM 39.2 °F 35.0 °F 32.0 °F 75% 30.20 in 10.0 mi West 5.8 mph - N/A   Clear
1:55 PM 41.0 °F 35.2 °F 32.0 °F 70% 30.19 in 10.0 mi West 9.2 mph - N/A   Clear
2:15 PM 41.0 °F 35.8 °F 30.2 °F 65% 30.18 in 10.0 mi SW 8.1 mph - N/A   Clear
2:35 PM 42.8 °F 37.5 °F 30.2 °F 61% 30.18 in 10.0 mi West 9.2 mph - N/A   Clear
2:55 PM 42.8 °F 36.6 °F 30.2 °F 61% 30.18 in 10.0 mi SW 11.5 mph - N/A   Clear
3:15 PM 42.8 °F 38.0 °F 30.2 °F 61% 30.18 in 10.0 mi West 8.1 mph - N/A   Clear
3:35 PM 42.8 °F 38.6 °F 30.2 °F 61% 30.19 in 10.0 mi West 6.9 mph - N/A   Clear
3:55 PM 42.8 °F 37.0 °F 30.2 °F 61% 30.20 in 10.0 mi West 10.4 mph - N/A   Clear
4:15 PM 42.8 °F 37.0 °F 30.2 °F 61% 30.20 in 10.0 mi WNW 10.4 mph - N/A   Clear
4:35 PM 41.0 °F 34.7 °F 30.2 °F 65% 30.20 in 10.0 mi West 10.4 mph - N/A   Clear
4:55 PM 41.0 °F 37.1 °F 30.2 °F 65% 30.20 in 10.0 mi West 5.8 mph - N/A   Clear
5:15 PM 37.4 °F 34.9 °F 30.2 °F 75% 30.21 in 10.0 mi West 3.5 mph - N/A   Clear
5:35 PM 35.6 °F 30.7 °F 28.4 °F 75% 30.22 in 10.0 mi WNW 5.8 mph - N/A   Clear
5:55 PM 33.8 °F 30.8 °F 28.4 °F 81% 30.23 in 10.0 mi NW 3.5 mph - N/A   Clear
6:15 PM 33.8 °F - 28.4 °F 81% 30.23 in 10.0 mi Calm Calm - N/A   Clear
6:35 PM 33.8 °F 29.6 °F 30.2 °F 87% 30.24 in 10.0 mi NW 4.6 mph - N/A   Clear
6:55 PM 32.0 °F 28.7 °F 30.2 °F 93% 30.24 in 10.0 mi NW 3.5 mph - N/A   Clear
7:15 PM 32.0 °F - 28.4 °F 87% 30.25 in 10.0 mi Calm Calm - N/A   Clear
7:35 PM 32.0 °F - 28.4 °F 87% 30.27 in 10.0 mi Calm Calm - N/A   Scattered Clouds
7:55 PM 32.0 °F 28.7 °F 28.4 °F 87% 30.27 in 10.0 mi WNW 3.5 mph - N/A   Scattered Clouds
8:15 PM 30.2 °F - 28.4 °F 93% 30.28 in 10.0 mi Calm Calm - N/A   Clear
8:35 PM 32.0 °F 25.6 °F 30.2 °F 93% 30.28 in 10.0 mi NW 6.9 mph - N/A   Clear
8:55 PM 32.0 °F 27.5 °F 30.2 °F 93% 30.28 in 10.0 mi NW 4.6 mph - N/A   Clear
9:15 PM 32.0 °F 27.5 °F 30.2 °F 93% 30.28 in 10.0 mi NW 4.6 mph - N/A   Clear
9:35 PM 32.0 °F 26.4 °F 30.2 °F 93% 30.29 in 10.0 mi NW 5.8 mph - N/A   Clear
10:15 PM 30.2 °F 23.4 °F 28.4 °F 93% 30.30 in 10.0 mi NNW 6.9 mph - N/A   Clear
10:35 PM 30.2 °F 23.4 °F 28.4 °F 93% 30.30 in 10.0 mi NNW 6.9 mph - N/A   Clear
10:55 PM 30.2 °F 23.4 °F 28.4 °F 93% 30.30 in 10.0 mi North 6.9 mph - N/A   Clear
11:15 PM 30.2 °F 22.6 °F 28.4 °F 93% 30.30 in 10.0 mi NNW 8.1 mph - N/A   Clear
11:35 PM 30.2 °F 24.3 °F 28.4 °F 93% 30.31 in 10.0 mi NNW 5.8 mph - N/A   Clear
11:55 PM 30.2 °F 24.3 °F 28.4 °F 93% 30.31 in 10.0 mi NNW 5.8 mph - N/A   Clear